IRIDIUM 91 [P]

Last updated on Thu Feb 21 2019 03:06:07 GMT+0000 (Coordinated Universal Time)

1 27372U 02005A 19051.60244987 .00078724 82229-7 28488-3 0 9995 2 27372 86.5943 30.5753 0352145 169.0115 191.9099 15.32540604899570

Satellite not in orbit